Weather History for Kalispell, MT

Change the Weather History Date:

Thursday, January 17, 2013

  Actual Average Record
Temperature  
Mean Temperature 19 °F 24 °F  
Max Temperature 29 °F 31 °F 50 °F (1919)
Min Temperature 9 °F 17 °F -18 °F (1984)
Degree Days  
Heating Degree Days 46 41  
Month to date heating degree days 717 716  
Since 1 July heating degree days 3827 4230  
Cooling Degree Days 0 0  
Month to date cooling degree days 0 0  
Year to date cooling degree days 0 0  
Moisture  
Dew Point 16 °F    
Average Humidity 88    
Maximum Humidity 100    
Minimum Humidity 75    
Precipitation  
Precipitation T in 0.04 in 0.42 in (1954)
Month to date precipitation 0.53 0.82  
Year to date precipitation 0.53 0.82  
Snow  
Snow T in - - ()
Month to date snowfall 4.0  
Year to date snowfall 4.0  
Since 1 July snowfall 12.8  
Snow Depth 2.00 in    
Sea Level Pressure  
Sea Level Pressure 30.40 in    
Wind  
Wind Speed 1 mph (SSW)    
Max Wind Speed 7 mph    
Max Gust Speed 8 mph    
Visibility 1 miles    
Events Fog , Snow    
T = Trace of Precipitation, MM = Missing Value Source: NWS Daily Summary

Daily Weather History Graph

Daily Weather History Graph

Search for Another Location

Airport:

Trip Planner

Search our weather history database for the weather conditions in past years. The results will help you decide how hot, cold, wet, or windy it might be!

Date:

Astronomy

Jan. 17, 2013 Rise Set
Actual Time 8:21 AM MST 5:13 PM MST
Civil Twilight 7:46 AM MST 5:48 PM MST
Nautical Twilight 7:07 AM MST 6:27 PM MST
Astronomical Twilight 6:30 AM MST 7:04 PM MST
Moon 10:55 AM MST (1/17) No Moon Set
Length of Visible Light 10h 02m
Length of Day
8h 52m
Waxing Crescent, 38% of the Moon is Illuminated
Jan 17
Waxing Crescent
Jan 18
First Quarter
Jan 26
Full
Feb 3
Last Quarter
Feb 10
New

Hourly Weather History & Observations

Time (MST) Temp. Windchill Dew Point Humidity Pressure Visibility Wind Dir Wind Speed Gust Speed Precip Events Conditions
12:39 AM 8.6 °F - 8.6 °F 100% 30.44 in 5.0 mi Calm Calm - N/A   Scattered Clouds
12:42 AM 8.6 °F 2.0 °F 8.6 °F 100% 30.44 in 0.8 mi NNE 3.5 mph - N/A   Mist
12:51 AM 8.6 °F - 8.6 °F 100% 30.43 in 0.2 mi Calm Calm - N/A Fog Light Freezing Fog
12:55 AM 9.0 °F - 8.1 °F 96% 30.59 in 0.2 mi Calm Calm - N/A Fog Light Freezing Fog
1:55 AM 12.9 °F - 10.0 °F 88% 30.58 in 0.2 mi Calm Calm - N/A Fog Light Freezing Fog
2:17 AM 12.2 °F - 8.6 °F 85% 30.44 in 0.2 mi Calm Calm - N/A Fog Light Freezing Fog
2:51 AM 12.2 °F - 10.4 °F 92% 30.44 in 0.2 mi Calm Calm - N/A Fog Light Freezing Fog
2:55 AM 12.9 °F - 10.0 °F 88% 30.57 in 0.8 mi Calm Calm - N/A   Mist
2:57 AM 12.2 °F - 10.4 °F 92% 30.44 in 1.8 mi Calm Calm - N/A   Overcast
3:00 AM 14.0 °F - 10.4 °F 86% 30.44 in 3.0 mi Calm Calm - N/A   Overcast
3:05 AM 12.2 °F - 10.4 °F 92% 30.44 in 1.5 mi Calm Calm - N/A   Overcast
3:07 AM 12.2 °F - 10.4 °F 92% 30.44 in 0.8 mi Calm Calm - N/A   Mist
3:17 AM 14.0 °F - 10.4 °F 86% 30.44 in 0.2 mi Calm Calm - N/A Fog Light Freezing Fog
3:55 AM 15.1 °F - 12.0 °F 88% 30.57 in 0.2 mi Calm Calm - N/A Fog Light Freezing Fog
4:25 AM 15.8 °F - 12.2 °F 86% 30.44 in 0.2 mi Calm Calm - N/A Fog Light Freezing Fog
4:55 AM 14.0 °F - 10.0 °F 84% 30.57 in 0.2 mi Calm Calm - N/A Fog Light Freezing Fog
5:06 AM 12.2 °F - 8.6 °F 85% 30.43 in 0.8 mi Calm Calm - N/A   Mist
5:34 AM 14.0 °F - 10.4 °F 86% 30.43 in 0.2 mi Calm Calm - N/A Fog Light Freezing Fog
5:55 AM 14.0 °F - 10.0 °F 84% 30.56 in 0.5 mi Calm Calm - N/A Fog Light Freezing Fog
6:18 AM 12.2 °F - 6.8 °F 79% 30.42 in 1.5 mi Calm Calm - N/A   Haze
6:27 AM 12.2 °F - 6.8 °F 79% 30.43 in 3.0 mi Calm Calm - N/A   Haze
6:33 AM 12.2 °F - 8.6 °F 85% 30.43 in 1.8 mi Calm Calm - N/A   Overcast
6:37 AM 12.2 °F - 8.6 °F 85% 30.43 in 0.8 mi Calm Calm - N/A   Overcast
6:55 AM 14.0 °F - 9.0 °F 80% 30.56 in 0.2 mi Calm Calm - N/A   Haze
7:27 AM 14.0 °F - 10.4 °F 86% 30.42 in 0.1 mi Calm Calm - N/A Fog Light Freezing Fog
7:55 AM 15.1 °F - 10.9 °F 84% 30.57 in 0.1 mi Calm Calm - N/A Fog Light Freezing Fog
8:15 AM 15.8 °F - 12.2 °F 86% 30.43 in 0.1 mi Calm Calm - N/A Fog Light Freezing Fog
8:22 AM 15.8 °F - 12.2 °F 86% 30.43 in 0.1 mi Calm Calm - N/A Fog Light Freezing Fog
8:33 AM 15.8 °F - 12.2 °F 86% 30.43 in 0.1 mi Calm Calm - N/A Fog Light Freezing Fog
8:55 AM 16.0 °F - 12.0 °F 84% 30.60 in 0.1 mi Calm Calm - N/A Fog Light Freezing Fog
9:55 AM 19.0 °F - 14.0 °F 81% 30.60 in 0.1 mi Calm Calm - N/A   Mist
10:55 AM 21.9 °F 17.2 °F 17.1 °F 82% 30.58 in 0.1 mi SW 3.5 mph - N/A   Mist
11:55 AM 21.9 °F 17.2 °F 18.0 °F 85% 30.56 in 0.1 mi SE 3.5 mph - N/A Fog Light Freezing Fog
12:55 PM 24.1 °F - 21.9 °F 91% 30.53 in 0.1 mi Calm Calm - 0.00 in Fog Light Freezing Fog
1:06 PM 24.8 °F - 21.2 °F 86% 30.38 in 0.5 mi Calm Calm - N/A Fog Light Freezing Fog
1:13 PM 24.8 °F - 21.2 °F 86% 30.37 in 0.1 mi Calm Calm - N/A Fog Light Freezing Fog
1:25 PM 24.8 °F 20.5 °F 21.2 °F 86% 30.37 in 1.2 mi SSW 3.5 mph - N/A   Mostly Cloudy
1:28 PM 24.8 °F 20.5 °F 21.2 °F 86% 30.36 in 3.0 mi SSW 3.5 mph - N/A   Mostly Cloudy
1:41 PM 24.8 °F 20.5 °F 21.2 °F 86% 30.36 in 4.0 mi South 3.5 mph - N/A   Scattered Clouds
1:50 PM 24.8 °F 20.5 °F 21.2 °F 86% 30.35 in 2.5 mi South 3.5 mph - N/A   Partly Cloudy
1:55 PM 24.1 °F 19.7 °F 21.9 °F 91% 30.49 in 4.0 mi South 3.5 mph - N/A   Partly Cloudy
2:55 PM 28.0 °F - 21.9 °F 78% 30.45 in 7.0 mi Calm Calm - N/A   Clear
3:55 PM 26.1 °F 21.9 °F 23.0 °F 88% 30.42 in 9.0 mi SW 3.5 mph - N/A   Clear
4:55 PM 19.9 °F 14.9 °F 19.0 °F 96% 30.43 in 4.0 mi SSW 3.5 mph - N/A   Partly Cloudy
5:03 PM 21.2 °F - 19.4 °F 93% 30.28 in 2.5 mi Calm Calm - N/A   Mostly Cloudy
5:08 PM 21.2 °F - 19.4 °F 93% 30.27 in 1.2 mi Calm Calm - N/A   Mostly Cloudy
5:17 PM 24.8 °F - 23.0 °F 93% 30.28 in 0.5 mi Calm Calm - N/A Fog Light Freezing Fog
5:27 PM 23.0 °F - 23.0 °F 100% 30.27 in 0.2 mi Calm Calm - N/A Fog Light Freezing Fog
5:41 PM 21.2 °F - 19.4 °F 93% 30.27 in 0.8 mi Calm Calm - N/A   Overcast
5:44 PM 21.2 °F 16.4 °F 19.4 °F 93% 30.26 in 1.5 mi WSW 3.5 mph - N/A   Overcast
5:46 PM 21.2 °F 16.4 °F 19.4 °F 93% 30.27 in 3.0 mi SW 3.5 mph - N/A   Overcast
5:55 PM 21.9 °F - 21.0 °F 96% 30.41 in 1.0 mi Calm Calm - N/A Fog Light Freezing Fog
6:13 PM 21.2 °F 16.4 °F 21.2 °F 100% 30.26 in 0.5 mi WNW 3.5 mph - N/A Fog Light Freezing Fog
6:32 PM 23.0 °F - 21.2 °F 93% 30.25 in 0.2 mi Calm Calm - N/A Fog Light Freezing Fog
6:55 PM 23.0 °F 18.4 °F 23.0 °F 100% 30.38 in 0.2 mi NNE 3.5 mph - N/A Fog Light Freezing Fog
7:03 PM 24.8 °F - 23.0 °F 93% 30.24 in 0.2 mi Calm Calm - N/A Fog Light Freezing Fog
7:36 PM 24.8 °F 19.1 °F 21.2 °F 86% 30.24 in 0.2 mi NNE 4.6 mph - N/A Fog Light Freezing Fog
7:55 PM 24.1 °F 19.7 °F 23.0 °F 96% 30.36 in 0.2 mi NNE 3.5 mph - N/A Fog Light Freezing Fog
8:14 PM 24.8 °F 20.5 °F 21.2 °F 86% 30.23 in 0.5 mi NE 3.5 mph - 0.00 in Fog , Snow Light Snow
8:43 PM 24.8 °F - 21.2 °F 86% 30.22 in 0.2 mi Calm Calm - 0.00 in Fog Light Freezing Fog
8:55 PM 24.1 °F - 21.9 °F 91% 30.35 in 0.2 mi Calm Calm - 0.00 in Fog Light Freezing Fog
9:28 PM 21.2 °F 13.6 °F 19.4 °F 93% 30.23 in 0.2 mi West 5.8 mph - N/A Fog Light Freezing Fog
9:37 PM 19.4 °F 14.3 °F 17.6 °F 93% 30.23 in 0.2 mi North 3.5 mph - N/A Fog Light Freezing Fog
9:53 PM 19.4 °F 10.4 °F 17.6 °F 93% 30.24 in 0.2 mi NE 6.9 mph - N/A Fog Light Freezing Fog
9:55 PM 19.0 °F 10.0 °F 17.1 °F 92% 30.37 in 0.2 mi NE 6.9 mph - N/A Fog Light Freezing Fog
10:55 PM 18.0 °F - 16.0 °F 92% 30.35 in 0.2 mi Calm Calm - N/A Fog Light Freezing Fog
11:13 PM 17.6 °F - 15.8 °F 93% 30.22 in 0.5 mi Calm Calm - N/A Fog Light Freezing Fog
11:32 PM 15.8 °F - 12.2 °F 86% 30.22 in 0.2 mi Calm Calm - N/A Fog Light Freezing Fog
11:55 PM 15.1 °F - 12.9 °F 91% 30.35 in 0.2 mi Calm Calm - N/A Fog Light Freezing Fog